Regional Weather Roundup
Issued by NWS Green Bay, WI

Home | Current Version | Previous Version | Graphics & Text | Print | Product List | Glossary Off
Versions: 1 2 3 4 5 6 7 8 9 10 11 12 13 14 15 16 17 18 19 20 21 22 23 24 25 26 27 28 29 30 31 32 33 34 35 36 37 38 39 40 41 42 43 44 45 46 47 48 49 50

000
ASUS43 KGRB 211510
RWRGRB

NORTH-CENTRAL AND NORTHEAST WISCONSIN REGIONAL WEATHER ROUNDUP
NATIONAL WEATHER SERVICE GREEN BAY WI
1000 AM CDT TUE OCT 21 2014

WIZ005-009-010>012-018-019-211600-
NORTH CENTRAL WISCONSIN

CITY           SKY/WX    TMP DP  RH WIND       PRES   REMARKS
IRONWOOD       CLOUDY    39  34  81 E9        30.23S
MANITOWISH WTR CLOUDY    37  35  93 E6        30.24R
ARBOR VITAE    CLOUDY    39  36  87 NE6       30.24R
EAGLE RIVER    CLOUDY    38  33  82 E9        30.24R
LAND O LAKES   CLOUDY    38  34  87 E7        30.25R
RHINELANDER    CLOUDY    37  34  89 VRB5      30.25R
PHILLIPS       CLOUDY    39  34  82 NE10      30.23R
ANTIGO         CLOUDY    40  35  82 NE12      30.24R
TOMAHAWK       CLOUDY    39  34  80 CALM      30.24S
MERRILL        CLOUDY    40  34  78 E7        30.25R
$$

WIZ013-073-211600-
NORTHEAST WISCONSIN

CITY           SKY/WX    TMP DP  RH WIND       PRES   REMARKS
IRON MOUNTAIN  CLOUDY    41  32  70 N10       30.24R
MARINETTE      MOSUNNY   45  34  65 N14       30.22R
OCONTO         PTSUNNY   44  34  68 N14G21    30.23R
$$

WIZ017-030-035>037-045-211600-
CENTRAL WISCONSIN

CITY           SKY/WX    TMP DP  RH WIND       PRES   REMARKS
MEDFORD        PTSUNNY   41  34  75 E8        30.22S
WAUSAU         CLOUDY    42  34  73 E7        30.23R
MOSINEE        CLOUDY    43  37  81 NE6       30.24R
MARSHFIELD     CLOUDY    43  35  73 E12       30.22R
WISC RAPIDS    CLOUDY    44  35  70 E12       30.25R
STEVENS POINT  CLOUDY    42  34  74 NE8       30.24R
WAUPACA        CLOUDY    46  36  69 N8        30.24R
SHAWANO        CLOUDY    45  36  69 NE12      30.25R
CLINTONVILLE   CLOUDY    43  34  70 NE12      30.24R
$$

WIZ038-039-048-051-211600-
FOX VALLEY

CITY           SKY/WX    TMP DP  RH WIND       PRES   REMARKS
NWS GREEN BAY  CLOUDY    45  37  73 N13       30.23R
APPLETON       CLOUDY    43  36  75 N14       30.23R
OSHKOSH        CLOUDY    44  37  76 N10       30.22R
FOND DU LAC    CLOUDY    45  37  73 N12       30.22R
$$

WIZ022-050-052-211600-
EAST CENTRAL WISCONSIN

CITY           SKY/WX    TMP DP  RH WIND       PRES   REMARKS
STURGEON BAY   PTSUNNY   46  34  61 NE13G22   30.22R
MANITOWOC      CLOUDY    46  37  71 N10       30.20R
SHEBOYGAN      CLOUDY    45  38  76 N9        30.19R
$$

LMZ563-521-522-541>543-211600-
LAKESHORE

STATION/POSITION TIME  TEMP    WIND        PRES    VSBY  WAVE
                       AIR SEA DIR/SP/G                  HT/PER
                 (UTC) (F)     (DEG/KT/KT) (MB)    (MI)  (FT/S)
SHEBOYGAN LKSHOR 1500   46 49  360/ 18/ 20 1022.9R
KEWAUNEE LKSHORE 1500   45     360/  8/ 15 1021.7R
NORTHPORT PIER   1400   44     360/ 17/ 21 1022.7R
N MID LAKE BUOY  1500   44 51   20/ 16/ 21 1022.7R         4/ 5
SISTER BAY LKSHO 1400           20/ 14/ 17   N/A
CHAMBERS ISLAND  1400   44     340/ 18/ 24 1022.7R
MENOMINEE LKSHOR 1500   44     360/ 16/ 18 1023.9R
$$


USA.gov is the U.S. government's official web portal to all federal, state and local government web resources and services.